星链-32853 (STARLINK-32853)

导读 | 豆包AI

STARLINK-32853是美国SpaceX星链计划中的一颗卫星,于2025年1月24日发射升空,归属美国所有。作为星链星座的组成部分,它承担着为全球范围用户提供低延迟、高速率卫星互联网接入服务的任务,进一步拓展了星链星座的全球覆盖能力与服务规模。

Basic Information
目录编号:
62818
目录名称:
STARLINK-32853
国际标识:
2025-018N
轨道中心:
EARTH
卫星名称:
星链-32853
卫星全名:
星链-32853 (STARLINK-32853)
卫星状态:
在轨 (已飞行415 天)
发射日期:
2025-01-24 UTC
国别 :
美国 (US)
星等 :
--
Orbit Information
数据来源 国际轨道数据 AOE轨道数据
星历时间 2026-03-14T22:21:01+0800
12小时前
查看轨道信息
2026-03-12T15:00:00+0800
2天前
查看轨道信息
半长轴 6853.268km 6853.436km
偏心率 0.000057 0.000131
轨道倾角 53.159° 53.154°
近地点辐角 348.637° 46.753°
升交点赤经 286.529° 297.236°
平近点角 11.462° 201.759°
近地点 474.74km 474.401km
远地点 475.522km 476.197km
周期 94.104分钟 94.107分钟
每日圈数 15.302283 15.301719
Detailed Information
固有亮度:
5
最大亮度:
2.5
卫星平台:
Starlink V1.0
覆盖范围:
全球
运营商:
太空探索技术公司
运营商所在国:
美国
制造商(研发单位):
太空探索技术公司
制造商所在国:
美国
使用方式:
暂无
Satellite Introduction
Starlink 计划是 SpaceX 推出的全球卫星互联网项目,通过发射低轨道卫星,为全球尤其是偏远地区提供高速、低延迟的互联网服务。自 2019 年起,Starlink 已部署数千颗卫星,旨在缩小全球数字鸿沟,推动互联网普及。该项目还为军事、航空等行业提供通信支持,带来广泛经济效益。
2D Orbit Map
3D Orbit Map
Orbit Altitude Analysis Chart
Orbit Inclination Analysis Chart
Orbit Comprehensive Analysis Chart
View Comprehensive Chart